AMAZONAS NEXUS

Last updated on Wed Sep 09 2026 00:03:03 GMT+0000 (Coordinated Universal Time)

1 55508U 23017A 26250.50638450 -.00000302 00000+0 00000+0 0 9996 2 55508 0.0411 43.5466 0002775 85.3732 338.9621 1.00269440 7878
UTC large
Height (km)
Speed (km/s)
/
Latitude / Longitude
Inclination (degrees)
Orbital Period (minutes)
Azimuth
Elevation
Range (km)
Doppler Factor

Next 0 passes for location: London (51.5072 / 0.1276)

No passes found over London.
AMAZONAS NEXUS